Retour au catalogue

QIANFAN-104

ActifCommunicationsPO
NORAD 66046·PAYLOAD·🇨🇳 China

Lancé Oct 17, 2025 depuis Taiyuan Satellite Launch Center

Loading…

Prochains Passages (prochaines 24 heures)

TLE

FraisSource: Space-Track

Époque: Sep 14, 2026, 15:41 UTC

1 66046U 25233P   26257.65392121  .00000062  00000-0  77992-4 0  9994
2 66046  89.0058  34.0610 0001810 100.4360 259.6995 13.51025923 45311

Suivez QIANFAN-104 en temps réel avec AllMySat

Download on the App Store